Погода в Новоспасске

Россия / Республика Татарстан     55°08′34″N   52°12′34″E
темп.,
°C
ветер,
м/с
пор.,
м/с
влажн.,
%
обл.,
%
осадки,
мм/ч
давл.,
гПа
погр.,
м
20 апреля, вт
вт2000:00+1в511480 0.0 1031339
03:000вюв510590 0.0 1032252
06:00+1вюв510470 0.0 1033435
09:00+4вюв68300 0.0 10341014
12:00+7вюв68260 0.0 10321261
15:00+9вюв67250 0.0 10311438
18:00+7вюв58350 0.0 1030349
21:00+4вюв410460 0.0 1031212
21 апреля, ср
ср2100:00+3вюв4115046 0.0 1030218
03:00+1юв3856100 0.0 1031135
06:00+3юв61348100 0.0 1030558
09:00+7ююв91333100 0.0 1028845
12:00+9ююв91228100 0.0 10271135
15:00+10ююв71232100 0.0 10271220
18:00+8ююв61238100 0.0 1026781
21:00+6ююз51360100 0.1 1027837
22 апреля, чт
чт2200:00+4ююв61484100 1.3 1027892
03:00+3ююв71596100 4.2 1026753
06:00+3ю71496100 0.9 1026804
09:00+4ю71296100 1.1 1027777
12:00+6ю71175100 0.0 1027705
15:00+7ю51075100 0.0 1027629
18:00+6ю6981100 0.0 1028550
21:00+4ю51091100 0.0 1028518
23 апреля, пт
пт2300:00+3ю4897100 0.0 1028421
03:00+3ю3698100 0.0 1028301
06:00+3ю3598100 0.1 1028278
09:00+4ю2496100 0.1 1029262
12:00+7ююв227993 0.0 1028513
15:00+10вюв226897 0.0 1027939
18:00+8вюв3577100 0.0 1027288
21:00+6в2486100 0.0 102691
24 апреля, сб
сб2400:00+4всв3691100 0.0 1025138
03:00+5всв4888100 0.0 1023243
06:00+5всв3692100 0.1 1022210
09:00+5всв3595100 0.6 1020238
12:00+6св2395100 0.8 1019192
15:00+6св2395100 1.4 1018212
18:00+6всв1296100 0.1 101754
21:00+5з0097100 0.2 101711